Date,TemperatureHighF,TemperatureAvgF,TemperatureLowF,DewpointHighF,DewpointAvgF,DewpointLowF,HumidityHigh,HumidityAvg,HumidityLow,PressureMaxIn,PressureMinIn,WindSpeedMaxMPH,WindSpeedAvgMPH,GustSpeedMaxMPH,PrecipitationSumIn
2013-2-1,30,26,23,20,15,9,78,63,50,30.17,30.03,23,13,40,0.00
2013-2-2,35,30,25,13,7,1,59,39,26,30.35,30.07,24,10,51,0.00
2013-2-3,42,34,28,4,-3,-12,32,21,11,30.17,29.82,14,6,28,0.01
2013-2-4,36,30,27,3,0,-3,33,27,23,29.98,29.84,15,9,35,0.00
2013-2-5,37,35,33,18,17,16,52,48,43,29.85,29.74,6,3,10,0.00
2013-2-6,40,34,25,23,17,13,73,50,38,30.00,29.66,10,4,15,0.00
2013-2-7,37,26,18,12,0,-10,65,34,14,30.22,29.98,10,4,15,0.00
2013-2-8,40,27,17,14,0,-10,67,32,17,30.06,29.63,6,1,11,0.00
2013-2-9,27,22,17,20,14,5,80,70,55,29.76,29.48,7,1,15,0.00
2013-2-10,22,17,10,13,7,2,76,64,48,30.10,29.56,6,2,9,0.00
2013-2-11,19,9,-1,11,2,-7,84,73,68,30.29,30.08,4,0,7,0.00
2013-2-13,24,19,17,10,5,3,57,54,49,30.14,30.00,19,13,30,0.00
2013-2-14,21,14,11,12,8,6,80,75,68,30.38,30.18,4,1,6,0.00
2013-2-15,23,18,9,12,8,4,84,66,51,30.47,30.23,16,7,29,0.00
2013-2-16,35,28,21,12,8,2,65,42,28,30.33,29.97,20,12,35,0.00
2013-2-17,42,33,20,14,1,-8,65,28,15,29.98,29.49,17,8,34,0.01
2013-2-18,23,18,9,8,1,-6,64,47,32,30.24,29.61,12,6,21,0.00
2013-2-19,37,24,8,7,-4,-17,58,33,12,30.24,29.69,9,2,18,0.00
2013-2-20,32,21,15,13,8,3,78,57,32,29.81,29.59,5,1,9,0.00
2013-2-21,22,16,10,13,9,4,81,75,66,30.01,29.61,8,1,14,0.00
2013-2-22,26,18,14,14,4,-2,72,54,41,30.05,29.84,16,6,32,0.00
2013-2-23,36,23,14,15,5,-2,61,46,37,29.92,29.60,19,10,40,0.00
2013-2-25,28,24,23,7,4,1,46,42,35,30.02,29.76,10,8,15,0.00
2013-2-26,25,20,12,16,11,5,80,68,42,30.21,29.73,10,2,20,0.00
2013-2-27,23,15,7,7,0,-10,77,54,32,30.43,30.20,13,6,21,0.00
2013-2-28,25,19,13,10,3,-3,64,50,35,30.41,30.30,18,8,30,0.00